Regional Weather Roundup
Issued by NWS

Home | Current Version | Previous Version | Graphics & Text | Print | Product List | Glossary Off
Versions: 1 2 3 4 5 6 7 8 9 10 11 12 13 14 15 16 17 18 19 20 21 22 23 24 25 26 27 28 29 30 31 32 33 34 35 36 37 38 39 40 41 42 43 44 45 46 47 48 49 50

000
ASUS45 KCYS 300810
RWRWY

WYOMING REGIONAL WEATHER ROUNDUP
NATIONAL WEATHER SERVICE CHEYENNE WY
200 AM MDT SAT AUG 30 2014

NOTE:  "FAIR" INDICATES FEW OR NO CLOUDS BELOW 12,000 FEET
WITH NO SIGNIFICANT WEATHER AND/OR OBSTRUCTIONS TO VISIBILITY.

WYZ001-300900-
YELLOWSTONE NATIONAL PARK

CITY           SKY/WX    TMP DP  RH WIND       PRES   REMARKS
LK YELLOWSTONE   N/A     42  39  89 CALM      30.18S
W YELLOWSTONE  NOT AVBL

$$
WYZ002>013-054>058-071-098>099-300900-
NORTHERN WYOMING

CITY           SKY/WX    TMP DP  RH WIND       PRES   REMARKS
JACKSON        MOCLDY    48  43  81 N5        30.10S
CODY           PTCLDY    57  45  62 S7        29.95F
GREYBULL       CLEAR     59  47  64 SE5       29.89F
WORLAND        CLEAR     59  47  64 CALM      29.91F
SHERIDAN       CLEAR     53  47  79 N3        29.90F
BUFFALO        CLEAR     60  45  57 SE8       29.99F
GILLETTE       CLEAR     61  51  70 SE13      29.99F
HULETT         FAIR      55  50  82 MISG      30.02
NEWCASTLE      FAIR      61  50  67 E9        30.04

$$
WYZ014>020-022>026-101>103-300900-
CENTRAL WYOMING

CITY           SKY/WX    TMP DP  RH WIND       PRES   REMARKS
BIG PINEY      PTCLDY    48  42  80 N3        30.16S
PINEDALE       MOSUNNY   41  39  93 W3        30.18S
DUBOIS         FAIR      48  36  61 W13G18    30.13F
LANDER         CLEAR     61  40  45 NE3       30.01F
RIVERTON       CLEAR     54  43  66 NW3       30.02F
CASPER         CLEAR     49  44  83 NW5       30.03F
DOUGLAS        CLEAR     58  51  78 SE12      30.04F

$$
WYZ021-027>030-104>119-300900-
SOUTHERN WYOMING

CITY           SKY/WX    TMP DP  RH WIND       PRES   REMARKS
EVANSTON       PTCLDY    56  40  55 S9        30.16F
KEMMERER       MOSUNNY   50  43  76 N7        30.18S
FORT BRIDGER   PTSUNNY   60  39  45 SW9       30.18F
ROCK SPRINGS   PTCLDY    60  35  39 SW8       30.14F
DIXON          FAIR      55  47  76 E6        30.20F
RAWLINS        CLEAR     57  40  52 VRB3      30.15F
SARATOGA       FAIR      55  41  58 SE6       30.20R
LARAMIE        PTCLDY    49  44  83 SE12      30.21F
CHEYENNE       PTCLDY    53  46  77 W10       30.15F
TORRINGTON     CLEAR     57  54  89 E8        30.03F
PINE BLUFFS    FAIR      50  46  87 S5        30.12F

$$


USA.gov is the U.S. government's official web portal to all federal, state and local government web resources and services.